#timestamp,LO_Frequency,Hit,StdDev 
1521237615.1,286047003.7,P
1521237635.9,286047004.2,P
1521237655.7,286047002.9,N
1521237675.6,286047003.0,Y
1521237695.4,286047001.1,P
1521237715.2,286047002.6,N
1521237735.1,286047000.3,N
1521237736.0,286047000.3,N
1521237755.8,286047002.8,N
1521237775.7,286047002.1,N
1521237795.5,286047002.3,N
1521237815.3,286047000.5,N
1521237835.2,286046998.3,N
1521237855.0,286046996.6,N
1521237855.9,286046996.6,N
1521237875.8,286046999.0,N
1521237895.6,286046998.8,N
1521237915.4,286046998.7,N
1521237935.3,286046998.5,N
1521237955.1,286046999.7,N
1521237975.9,286047000.8,N
1521237995.7,286046998.3,N
1521238015.5,286047001.1,N
1521238035.4,286046999.9,N
1521238055.2,286047002.4,N
1521238075.1,286047000.3,N
1521238076.0,286047000.3,N
1521238095.8,286046998.1,N
1521238115.6,286046999.5,N
1521238135.5,286046996.9,N
1521238155.3,286046999.1,N
1521238175.1,286046998.7,N
1521238195.9,286046998.6,N
1521238215.7,286047000.2,N
1521238235.6,286047002.2,N
1521238255.4,286047000.2,N
1521238275.2,286047000.3,N
1521238295.1,286047000.2,N
1521238296.0,286047000.2,N
1521238315.8,286047001.3,N
1521238335.7,286047001.6,N
1521238355.5,286047001.2,N
1521238375.3,286047000.0,N
1521238395.2,286047001.1,N
1521238415.9,286046998.5,N
1521238435.7,286047000.5,N
1521238455.6,286046998.3,N
1521238475.4,286047001.2,N
1521238495.3,286047000.8,N
1521238515.1,286047000.4,N
1521238516.0,286047000.4,N
1521238535.8,286047000.2,N
1521238555.7,286047002.6,N
1521238575.5,286047001.8,N
1521238595.3,286047002.6,N
1521238615.2,286047001.6,N
1521238635.0,286047004.1,Y
1521238635.9,286047004.1,P
1521238655.8,286047001.7,N
1521238675.6,286047004.3,N
1521238695.4,286047005.9,Y
1521238715.3,286047004.1,P
1521238735.1,286047000.1,N
1521238755.8,286046998.3,N
1521238775.7,286046996.8,N
1521238795.5,286046998.6,N
1521238815.4,286046997.4,N
1521238835.2,286046997.6,N
1521238855.0,286046997.3,N
1521238855.9,286046997.3,N
1521238875.8,286046997.0,N
1521238895.6,286046996.5,N
1521238915.5,286046998.9,N
1521238935.3,286047000.8,N
1521238955.1,286046998.8,N
1521238975.9,286046999.5,N
1521238995.7,286046999.3,N
1521239015.6,286047000.7,N
1521239035.4,286047000.5,N
1521239055.2,286046996.9,N
1521239075.1,286046999.6,N
1521239076.0,286046999.6,N
1521239095.8,286046996.7,N
1521239115.6,286046995.0,N
1521239135.5,286046997.8,N
1521239155.3,286046995.6,N
1521239175.2,286046995.5,N
1521239195.9,286046998.0,N
1521239215.7,286046996.6,N
1521239235.6,286046998.7,N
1521239255.4,286046999.6,N
1521239275.2,286046999.0,N
1521239295.1,286046999.6,N
1521239296.0,286046999.6,N
1521239315.8,286046996.7,N
1521239335.7,286046998.5,N
1521239355.5,286046998.4,N
1521239375.3,286047000.3,N
1521239395.2,286046998.9,N
1521239415.0,286046999.0,N
1521239415.9,286046999.0,N
1521239435.8,286046998.3,N
1521239455.6,286046999.6,N
1521239475.4,286046999.4,N
1521239495.3,286046998.9,N
1521239515.1,286046998.1,N
1521239535.8,286047001.0,N
1521239555.7,286047001.8,N
1521239575.5,286046999.9,N
1521239595.4,286047002.8,N
1521239615.2,286046999.7,N
1521239635.0,286047000.4,N
1521239635.9,286047000.4,N
1521239655.8,286046998.6,N
1521239675.6,286047000.5,N
1521239695.4,286046998.4,N
1521239715.3,286047000.9,N
1521239735.1,286046998.7,N
1521239755.9,286046996.7,N
1521239775.7,286046999.3,N
1521239795.5,286047000.7,N
1521239815.4,286047002.4,N
1521239835.2,286047002.7,N
1521239855.0,286047001.1,N
1521239856.0,286047001.1,N
1521239875.8,286047002.7,N
1521239895.6,286046998.3,N
1521239915.5,286047001.0,N
1521239935.3,286047000.6,N
1521239955.1,286047000.2,N
1521239975.9,286047000.0,N
1521239995.7,286047001.1,N
1521240015.6,286046998.9,N
1521240035.4,286046998.3,N
1521240055.2,286047000.8,N
1521240075.1,286046998.1,N
1521240076.0,286046998.1,N
1521240095.8,286046998.6,N
1521240115.7,286046998.7,N
1521240135.5,286046997.6,N
1521240155.3,286046997.8,N
1521240175.2,286046998.7,N
1521240195.0,286047000.6,N
1521240195.9,286047000.6,N
1521240215.7,286046997.4,N
1521240235.6,286046997.3,N
1521240255.4,286046997.1,N
1521240275.3,286046999.1,N
1521240295.1,286046998.5,N
1521240296.0,286046998.5,N
1521240315.8,286047000.4,N
1521240335.7,286046999.9,N
1521240355.5,286047001.1,N
1521240375.4,286046996.9,N
1521240395.2,286046997.7,N
1521240415.0,286046999.6,N
1521240415.9,286046999.6,N
1521240435.8,286047001.1,N
1521240455.6,286047000.5,N
1521240475.4,286047000.6,N
1521240495.3,286046999.7,N
1521240515.1,286046998.4,N
1521240535.9,286046999.0,N
1521240555.7,286046996.9,N
1521240575.5,286046999.0,N
1521240595.4,286046999.4,N
1521240615.2,286046997.0,N
1521240635.0,286046997.5,N
1521240635.9,286046997.5,N
1521240655.8,286046997.2,N
1521240675.6,286046997.9,N
1521240695.5,286046996.9,N
1521240715.3,286046995.2,Y
1521240735.1,286046995.0,P
1521240755.9,286046996.9,N
1521240775.7,286046995.3,P
1521240795.6,286046997.7,N
1521240815.4,286046997.3,N
1521240835.2,286046998.8,N
1521240855.1,286047000.0,N
1521240856.0,286047000.0,N
1521240875.8,286046998.9,N
1521240895.7,286046998.2,N
1521240915.5,286046999.0,N
1521240935.3,286046996.6,N
1521240955.2,286046999.4,N
1521240975.0,286047000.5,N
1521240975.9,286047000.5,N
1521240995.7,286047002.3,N
1521241015.6,286047002.2,N
1521241035.4,286047003.1,N
1521241055.3,286047005.9,N
1521241075.1,286046999.7,N
1521241076.0,286046999.7,N
1521241095.8,286047002.2,N
1521241115.7,286047004.3,N
1521241135.5,286047003.5,N
1521241155.3,286047002.1,N
1521241175.2,286046998.3,N
1521241195.0,286046998.3,N
1521241195.9,286046998.3,N
